Clermont County, Batavia, OH

10:14 PM EST on December 13, 2019 (GMT -0500)
Clermont County, Batavia

Weather History for KI69 - October, 2019

Change the Weather History Date:

Sunday, October 20, 2019

  Actual Average (KLUK) Record (KLUK)
Temperature  
Mean Temperature 63 °F -  
Max Temperature 73 °F 63 °F 81 °F (1971)
Min Temperature 53 °F 41 °F 25 °F (1972)
Degree Days  
Heating Degree Days 2    
Growing Degree Days 13 (Base 50)    
Moisture  
Dew Point 54 °F    
Average Humidity 77    
Maximum Humidity 95    
Minimum Humidity 51    
Precipitation  
Precipitation 0.00 in - - ()
Sea Level Pressure  
Sea Level Pressure 29.89 in    
Wind  
Wind Speed 1 mph (South)    
Max Wind Speed 7 mph    
Max Gust Speed -    
Visibility 10 miles    
Events Rain    
Averages and records for this station are not official NWS values.
T = Trace of Precipitation, MM = Missing Value Source: NWS Daily Summary

Daily Weather History Graph

Daily Weather History Graph

Search for Another Location

Airport or City:

Astronomy

Oct. 20, 2019 Rise Set
Actual Time 7:51 AM EDT 6:51 PM EDT
Civil Twilight 7:24 AM EDT 7:18 PM EDT
Nautical Twilight 6:53 AM EDT 7:49 PM EDT
Astronomical Twilight 6:22 AM EDT 8:20 PM EDT
Moon No Moon Rise 2:16 PM EDT (10/20)
Length of Visible Light 11h 54m
Length of Day
11h 00m
Waning Gibbous, 59% of the Moon is Illuminated
Oct 20
Waning Gibbous
Oct 21
Last Quarter
Oct 27
New
Nov 4
First Quarter
Nov 12
Full

Hourly Weather History & Observations

Time (EDT) Temp. Dew Point Humidity Pressure Visibility Wind Dir Wind Speed Gust Speed Precip Events Conditions
12:18 AM 57.6 °F 45.5 °F 64% 29.85 in 10.0 mi Calm Calm - N/A   Scattered Clouds
12:36 AM 57.4 °F 45.5 °F 65% 29.84 in 10.0 mi Calm Calm - N/A   Scattered Clouds
12:55 AM 56.3 °F 45.7 °F 68% 29.84 in 10.0 mi Calm Calm - N/A   Scattered Clouds
1:15 AM 54.9 °F 46.4 °F 73% 29.83 in 10.0 mi Calm Calm - N/A   Scattered Clouds
1:39 AM 54.1 °F 46.8 °F 76% 29.83 in 10.0 mi Calm Calm - N/A   Mostly Cloudy
1:57 AM 53.4 °F 47.3 °F 80% 29.83 in 10.0 mi Calm Calm - N/A   Scattered Clouds
2:16 AM 54.5 °F 47.3 °F 77% 29.83 in 10.0 mi Calm Calm - N/A   Clear
2:55 AM 53.8 °F 47.3 °F 79% 29.83 in 10.0 mi Calm Calm - N/A   Overcast
3:19 AM 54.3 °F 47.8 °F 79% 29.83 in 10.0 mi Calm Calm - N/A   Overcast
3:37 AM 54.7 °F 47.5 °F 77% 29.83 in 7.0 mi Calm Calm - N/A   Overcast
3:56 AM 54.5 °F 47.7 °F 78% 29.82 in 10.0 mi Calm Calm - N/A   Overcast
4:15 AM 54.5 °F 48.2 °F 79% 29.82 in 10.0 mi SSE 3.5 mph - N/A   Overcast
4:35 AM 55.0 °F 48.9 °F 80% 29.82 in 10.0 mi Calm Calm - N/A   Overcast
4:59 AM 54.7 °F 50.2 °F 85% 29.82 in 10.0 mi Calm Calm - N/A   Overcast
5:17 AM 54.7 °F 49.1 °F 81% 29.83 in 10.0 mi Calm Calm - N/A   Overcast
5:35 AM 54.7 °F 50.0 °F 84% 29.84 in 10.0 mi Calm Calm - N/A   Overcast
5:55 AM 55.4 °F 49.1 °F 79% 29.84 in 10.0 mi Calm Calm - N/A   Overcast
6:15 AM 55.4 °F 50.0 °F 82% 29.85 in 10.0 mi Calm Calm - N/A   Overcast
6:39 AM 55.2 °F 50.9 °F 85% 29.86 in 10.0 mi Calm Calm - N/A   Overcast
6:57 AM 55.0 °F 50.4 °F 84% 29.86 in 10.0 mi Calm Calm - N/A Rain Rain
7:15 AM 54.5 °F 51.8 °F 91% 29.87 in 10.0 mi Calm Calm - N/A   Light Drizzle
7:35 AM 54.7 °F 52.2 °F 91% 29.87 in 10.0 mi Calm Calm - N/A   Overcast
7:55 AM 54.7 °F 52.7 °F 93% 29.87 in 10.0 mi Calm Calm - N/A   Overcast
8:19 AM 54.9 °F 53.4 °F 95% 29.87 in 10.0 mi Calm Calm - N/A   Overcast
8:37 AM 54.9 °F 53.1 °F 94% 29.87 in 10.0 mi Calm Calm - N/A   Overcast
8:56 AM 55.6 °F 53.2 °F 92% 29.88 in 10.0 mi Calm Calm - N/A   Overcast
9:15 AM 56.5 °F 53.8 °F 91% 29.89 in 10.0 mi Calm Calm - N/A   Overcast
9:35 AM 57.4 °F 54.3 °F 90% 29.90 in 10.0 mi SSW 3.5 mph - N/A   Overcast
9:59 AM 58.3 °F 55.0 °F 89% 29.91 in 10.0 mi SSW 3.5 mph - N/A   Overcast
10:17 AM 59.2 °F 55.6 °F 88% 29.91 in 10.0 mi Calm Calm - N/A   Overcast
10:36 AM 60.3 °F 56.1 °F 86% 29.91 in 10.0 mi Calm Calm - N/A   Overcast
10:55 AM 60.8 °F 56.3 °F 85% 29.92 in 10.0 mi Calm Calm - N/A   Mostly Cloudy
11:15 AM 61.3 °F 56.3 °F 83% 29.91 in 10.0 mi Calm Calm - N/A   Scattered Clouds
11:39 AM 64.0 °F 57.0 °F 78% 29.92 in 10.0 mi WSW 3.5 mph - N/A   Clear
11:57 AM 64.9 °F 56.7 °F 74% 29.92 in 10.0 mi WSW 3.5 mph - N/A   Clear
12:35 PM 68.0 °F 56.8 °F 67% 29.92 in 10.0 mi Calm Calm - N/A   Clear
12:55 PM 68.9 °F 56.7 °F 65% 29.91 in 10.0 mi Calm Calm - N/A   Clear
1:19 PM 67.6 °F 56.8 °F 68% 29.91 in 10.0 mi Calm Calm - N/A   Scattered Clouds
1:37 PM 68.9 °F 57.2 °F 66% 29.91 in 10.0 mi West 5.8 mph - N/A   Scattered Clouds
1:55 PM 69.1 °F 56.3 °F 64% 29.90 in 10.0 mi NW 3.5 mph - N/A   Scattered Clouds
2:15 PM 69.8 °F 55.9 °F 61% 29.90 in 10.0 mi Calm Calm - N/A   Mostly Cloudy
2:35 PM 71.4 °F 55.6 °F 57% 29.90 in 10.0 mi WSW 3.5 mph - N/A   Mostly Cloudy
2:59 PM 70.0 °F 55.4 °F 60% 29.90 in 10.0 mi WSW 3.5 mph - N/A   Mostly Cloudy
3:17 PM 73.8 °F 55.4 °F 53% 29.90 in 10.0 mi WSW 6.9 mph - N/A   Mostly Cloudy
3:35 PM 73.4 °F 55.4 °F 53% 29.89 in 10.0 mi WSW 5.8 mph - N/A   Mostly Cloudy
3:55 PM 73.4 °F 54.3 °F 51% 29.89 in 10.0 mi South 3.5 mph - N/A   Scattered Clouds
4:15 PM 73.0 °F 54.3 °F 52% 29.90 in 10.0 mi South 4.6 mph - N/A   Scattered Clouds
4:39 PM 72.7 °F 55.6 °F 55% 29.90 in 10.0 mi SSE 4.6 mph - N/A   Scattered Clouds
4:57 PM 70.7 °F 55.9 °F 59% 29.90 in 10.0 mi SE 3.5 mph - N/A   Scattered Clouds
5:15 PM 71.4 °F 56.3 °F 59% 29.90 in 10.0 mi SE 3.5 mph - N/A   Scattered Clouds
5:35 PM 71.4 °F 56.5 °F 59% 29.90 in 10.0 mi SE 5.8 mph - N/A   Mostly Cloudy
5:56 PM 70.0 °F 56.8 °F 63% 29.91 in 10.0 mi SE 4.6 mph - N/A   Mostly Cloudy
6:19 PM 68.9 °F 57.4 °F 67% 29.91 in 10.0 mi SSE 3.5 mph - N/A   Scattered Clouds
6:37 PM 67.5 °F 57.6 °F 70% 29.91 in 10.0 mi South 4.6 mph - N/A   Clear
6:55 PM 66.6 °F 57.7 °F 73% 29.91 in 10.0 mi SSE 3.5 mph - N/A   Clear
7:15 PM 65.3 °F 58.1 °F 77% 29.92 in 10.0 mi SSE 3.5 mph - N/A   Clear
7:35 PM 64.4 °F 58.1 °F 80% 29.92 in 10.0 mi Calm Calm - N/A   Clear
7:59 PM 63.7 °F 57.9 °F 81% 29.94 in 10.0 mi Calm Calm - N/A   Clear
8:17 PM 63.0 °F 57.7 °F 83% 29.94 in 10.0 mi Calm Calm - N/A   Clear
8:35 PM 62.4 °F 57.6 °F 84% 29.94 in 10.0 mi Calm Calm - N/A   Clear
8:55 PM 62.1 °F 57.7 °F 86% 29.96 in 10.0 mi South 4.6 mph - N/A   Clear
9:15 PM 61.7 °F 57.6 °F 86% 29.96 in 10.0 mi South 4.6 mph - N/A   Clear
9:38 PM 61.2 °F 57.6 °F 88% 29.97 in 10.0 mi South 3.5 mph - N/A   Clear
9:57 PM 61.0 °F 57.6 °F 88% 29.97 in 10.0 mi SSW 3.5 mph - N/A   Clear
10:15 PM 60.4 °F 57.4 °F 90% 29.98 in 10.0 mi South 3.5 mph - N/A   Clear
10:35 PM 60.1 °F 57.4 °F 91% 29.98 in 10.0 mi Calm Calm - N/A   Clear
10:55 PM 59.9 °F 57.2 °F 91% 29.99 in 10.0 mi Calm Calm - N/A   Mostly Cloudy
11:18 PM 59.2 °F 57.0 °F 93% 29.98 in 10.0 mi Calm Calm - N/A   Mostly Cloudy
11:37 PM 59.0 °F 57.0 °F 93% 29.98 in 10.0 mi Calm Calm - N/A   Clear
11:55 PM 58.3 °F 56.7 °F 94% 29.98 in 10.0 mi Calm Calm - N/A   Clear